Aérodrome :
LOGIN :

S'inscrire | Disclaimer

   EN    FR    IT 

 










Légende :    VFR   VFR Marginal   IFR   IFR Intensif   IFR Très Intensif
Visi : 
Plafond : 
>= 8 km
>= 3000ft
5 à 8 km
1000 à 3000 ft
1500m à 5 km
500 à 1000 ft
800 à 1500m
200 à 500 ft
< 800m
< 200 ft
Symboles :   Orages  Brouillard  Fortes neiges  Fortes précipitations  Vent > 20 kt
SIGMETs :   Divers  Orages  Givrage  Turbulence  Onde Orograph.  Cendres Volcan.







- Altitude de l'aérodrome : 1568 ft


ETSB - Büchel AB

DERNIER METAR :
  • 140320Z AUTO 26017G37KT 1100 // ////// 01/00 Q0991 ///

METARs EXPIRÉS :
  • 140220Z AUTO 20011KT 3500 // ////// 02/01 Q0990 ///
  • 140120Z AUTO 23014G25KT 3900 // ////// 02/01 Q0991 ///

Prévision TAF périmée.
Pas de NOTAMs connus pour ce terrain.
1 SIGMET publié pour la FIR Langen (EDGG) :
 
Turbulence forte
EDGG SIGMET 1 VALID 140200/140500 EDZF
EDGG LANGEN FIR SEV TURB FCST S OF N4930 SFC/5000FT MOV E NC=



MET'MAP, la Météo Aéronautique d'un coup d'oeil ! - Copyright ORBIFLY Décembre 2007 - Disclaimer

ORBIFLY MET'MAP TEAM :

Programmation & Développement : Alexandra Zaïnal
Conception & Développement : Baudouin d'Aumeries
Co-Programmation & Développement : Marc-Olivier Méhu
Soutien technique & logistique : Manuel Goepfert

Contact : metmap@orbifly.com




SOURCES & CREDITS :

   NOAA